Regional Weather Roundup
Issued by NWS

Home | Current Version | Previous Version | Text Only | Print | Product List | Glossary Off
Versions: 1 2 3 4 5 6 7 8 9 10 11 12 13 14 15 16 17 18 19 20 21 22 23 24 25 26 27 28 29 30 31 32 33 34 35 36 37 38 39 40 41 42 43 44 45 46 47 48 49 50

000
ASUS43 KMPX 271710
RWRMN
WEATHER ROUNDUP FOR MINNESOTA
NATIONAL WEATHER SERVICE TWIN CITIES/CHANHASSEN MN
1200 PM CDT MON MAR 27 2017


NOTE: "FAIR" INDICATES FEW OR NO CLOUDS BELOW 12,000 FEET WITH NO
SIGNIFICANT WEATHER AND/OR OBSTRUCTIONS TO VISIBILITY. N/A MEANS
CURRENT SKY AND/OR WEATHER CONDITIONS ARE NOT AVAILABLE.

MNZ060>063-068>070-271800-
   Twin Cities Metro

CITY           SKY/WX    TMP DP  RH WIND       PRES   REMARKS
TWIN CITIES    MOSUNNY   50  34  54 NE3       29.98S
ST PAUL        SUNNY     50  37  61 N7        29.98S
CRYSTAL        MOSUNNY   51  34  52 VRB5      29.97R
BLAINE         MOSUNNY   52  36  54 N5        29.97S
LAKEVILLE      PTSUNNY   46  37  71 N6        29.97F
EDEN PRAIRIE   MOSUNNY   52  36  54 N6        29.96F
SOUTH ST PAUL  SUNNY     49  36  59 N5        29.97S
LAKE ELMO      PTSUNNY   48  37  66 NE5       29.98F
$$
MNZ001>005-007-008-013>017-022>024-027-028-271800-
   Northwest Minnesota

CITY           SKY/WX    TMP DP  RH WIND       PRES   REMARKS
BEMIDJI        SUNNY     46  34  62 CALM      29.98F
HALLOCK        FOG       34  32  93 SE7       30.00F VSB<1/4 WCI  28
ROSEAU         SUNNY     45  37  76 CALM      30.01R
WARROAD        SUNNY     39  36  87 E3        30.01S
THIEF RVR FALL FOG       39  37  92 S5        30.02S VSB 1/4
CROOKSTON      CLOUDY    37  37 100 SE5       30.02F FOG
FOSSTON        SUNNY     48  37  66 SW3       30.00S
DETROIT LAKES  SUNNY     48  36  61 CALM      29.99F
MOORHEAD       SUNNY     46  39  76 CALM      29.99F
PARK RAPIDS    SUNNY     49  34  56 CALM      29.97F
MAHNOMEN       FAIR      46  39  76 CALM      29.98F
$$
MNZ006-009>011-018-025>026-271800-
   North Central Minnesota

CITY           SKY/WX    TMP DP  RH WIND       PRES   REMARKS
BAUDETTE       SUNNY     46  34  62 CALM      30.00F
FLAG ISLAND    MOSUNNY   34  30  86 S3        30.01S
INTL FALLS     SUNNY     48  33  56 VRB3      29.99F
WASKISH        MOSUNNY   39  36  87 NW7       30.00S
BIG FORK       SUNNY     48  34  57 E5        29.98F
LONGVILLE      CLOUDY    46  36  66 CALM      29.98S
GRAND RAPIDS   SUNNY     45  33  63 CALM      30.00F
ORR            SUNNY     46  28  49 CALM      29.97S
COOK           MOSUNNY   45  34  65 NE3       29.99S
WALKER         FAIR      44  34  68 SE5       29.98S
$$
MNZ012-019>021-037-271800-
   Northeast Minnesota

CITY           SKY/WX    TMP DP  RH WIND       PRES   REMARKS
DULUTH         CLOUDY    43  36  76 NW5       29.97R
ELY            CLOUDY    43  30  61 N3        29.97F
HIBBING        MOSUNNY   42  34  73 CALM      29.98S
EVELETH        CLOUDY    43  31  63 CALM      29.99S
DULUTH HARBOR  MOSUNNY   43  37  81 CALM      29.99S
TWO HARBORS    MOSUNNY   48  37  66 CALM      29.95F
SILVER BAY     CLOUDY    45  36  70 NE3       29.95S
GRAND MARAIS     N/A     41  35  79 SW6       29.97S
G MARAIS ARPRT MOSUNNY   43  30  61 CALM      29.95S
$$
MNZ029>031-032-039>041-046>048-054>057-064-271800-
   West Central Minnesota

CITY           SKY/WX    TMP DP  RH WIND       PRES   REMARKS
FERGUS FALLS   SUNNY     48  37  66 CALM      30.01F
WHEATON        MOSUNNY   48  37  66 CALM      30.01S
MORRIS         MOSUNNY   50  39  66 CALM      29.98F
ALEXANDRIA     CLOUDY    46  36  68 E5        29.99S
ELBOW LAKE     PTSUNNY   47  38  71 CALM      29.99S
WADENA         CLOUDY    48  36  61 CALM      29.98S
GLENWOOD       CLOUDY    46  37  71 CALM      29.99S
APPLETON       CLOUDY    48  37  66 CALM      30.00S
BENSON         MOSUNNY   50  36  57 NW5       30.01S
ORTONVILLE     PTSUNNY   46  37  71 CALM      29.99S
MADISON        CLOUDY    50  41  71 CALM      29.99F
WILLMAR        FAIR      50  36  57 NE3       30.00S
$$
MNZ033>034-036-042>043-049>051-058-059-271800-
   Central Minnesota

CITY           SKY/WX    TMP DP  RH WIND       PRES   REMARKS
ST CLOUD       CLOUDY    49  37  63 N6        29.97F
SAUK CENTRE    PTSUNNY   46  35  66 CALM      29.99S
PAYNESVILLE      N/A     46  34  63 N3        29.99S
AITKIN         CLOUDY    48  30  49 NE5       29.97S
PINE RIVER     CLOUDY    46  36  66 NE3       30.01F
BRAINERD       CLOUDY    48  33  56 N8        29.99R
STAPLES        CLOUDY    48  34  57 NE3       29.98S
LONG PRAIRIE   CLOUDY    45  32  61 N5        29.99S
LITTLE FALLS   CLOUDY    46  32  57 NW3       29.99R
LITCHFIELD     MOSUNNY   52  37  58 CALM      29.98S
BUFFALO        MOSUNNY   49  36  61 N5        29.99S
MAPLE LAKE     PTSUNNY   50  38  63 N5        29.99S
HUTCHINSON     CLOUDY    50  38  62 N5        29.99S
$$
MNZ037-044-045-052-053-271800-
   East Central Minnesota

CITY           SKY/WX    TMP DP  RH WIND       PRES   REMARKS
PRINCETON      MOSUNNY   52  37  58 N5        29.98S
MORA           CLOUDY    46  36  66 CALM      29.99S
CAMBRIDGE      MOSUNNY   50  37  62 N3        29.96S
RUSH CITY      PTSUNNY   47  39  71 N5        29.98S
MOOSE LAKE     CLOUDY    45  34  65 NE5       29.95F
CLOQUET        CLOUDY    45  36  70 N3        29.97S
MCGREGOR       CLOUDY    45  36  70 N3        29.99S
$$
MNZ071>073-080-081-089-090-097-098-271800-
   Southwest Minnesota

CITY           SKY/WX    TMP DP  RH WIND       PRES   REMARKS
MONTEVIDEO     CLOUDY    54  39  58 CALM      30.01S
GRANITE FALLS  CLOUDY    51  39  63 CALM      30.00F
CANBY          CLOUDY    48  40  71 CALM      29.99F
MARSHALL       CLOUDY    47  37  68 W3        30.00S
REDWOOD FALLS  PTSUNNY   52  37  56 CALM      29.98S
OLIVIA         MOSUNNY   50  37  62 CALM      29.98S
PIPESTONE      PTSUNNY   46  36  66 CALM      29.98S
WINDOM         SUNNY     46  37  71 N3        29.98F
WORTHINGTON    CLOUDY    44  36  73 NE7       29.99S
JACKSON        CLOUDY    45  37  76 N7        29.98S
TRACY          CLOUDY    48  39  71 CALM      29.99S
SLAYTON        CLOUDY    43  37  79 NW5       30.00S
$$
MNZ065>067-074>077-082>085-091>093-271800-
   South Central Minnesota

CITY           SKY/WX    TMP DP  RH WIND       PRES   REMARKS
MANKATO        CLOUDY    47  38  71 NE9       29.98F
NEW ULM        CLOUDY    46  36  66 CALM      29.98F
ST JAMES       CLOUDY    46  37  71 CALM      30.00S
FAIRMONT       CLOUDY    44  38  79 N12       29.98S
GLENCOE        MOSUNNY   50  40  66 N5        29.97F
FARIBAULT      CLOUDY    45  39  81 N8        29.98S
OWATONNA       CLOUDY    43  37  81 NE8       29.97F
WASECA         CLOUDY    41  36  81 N10       29.98F
ALBERT LEA     CLOUDY    39  37  93 N7        29.96S
$$
MNZ078>079-086>088-094>096-271800-
   Southeast Minnesota

CITY           SKY/WX    TMP DP  RH WIND       PRES   REMARKS
ROCHESTER      CLOUDY    41  38  89 N6        29.96R
RED WING       CLOUDY    45  37  76 N5        29.97S
STANTON        CLOUDY    44  38  79 N7        29.96F
DODGE CENTER   CLOUDY    39  37  93 N7        29.96S
WINONA         CLOUDY    43  39  87 N5        29.97S
AUSTIN         CLOUDY    43  37  81 N7        29.95F
PRESTON        CLOUDY    42  38  85 N5        29.95S
$$
ABBREVIATIONS USED IN REMARKS
   TC - TEMPERATURES IN CELSIUS
  WCI - WIND CHILL INDEX
   HX - HEAT INDEX
  VSB - VISIBILITY
$$




USA.gov is the U.S. government's official web portal to all federal, state and local government web resources and services.